Flag for Slovakia Weather past 2 weeks in Prievidza, Slovakia

Now
42 °F

Rain showers. Overcast.


Feels Like: 36 °F
Forecast: 33 / 40 °F
Wind: 8 mph from West

Location: Prievidza

Current Time: Mar 31, 2015 at 11:27:03 PM

Latest Report: Mar 31, 2015 at 11:00 PM


Visibility: 31 mi

Pressure: 29.60 "Hg

Humidity: 74%

Dew point: 34 °F

Location of PrievidzaLocation

Historic Weather in Prievidza — Graph

°F

Prievidza temperature yesterday

Maximum temperature yesterday: 51 °F (at 4:00 PM)
Minimum temperature yesterday: 38 °F (at 11:00 PM)
Average temperature yesterday: 46 °F

Past Weeks' High & Low Weather Summary

 TemperatureHumidityPressure
High64 °F (Mar 25, 11:00 AM)96% (Mar 27, 7:00 AM)30.60 "Hg (Mar 27, 7:00 AM)
Low25 °F (Mar 21, 6:00 AM)21% (Mar 18, 2:00 PM)29.44 "Hg (Mar 30, 7:00 AM)
Average45 °F66%30.02 "Hg
* Reported Mar 16 9:00 PM — Mar 31 10:00 PM, Prievidza, Weather by CustomWeather, © 2015

Note: Actual official high and low records may vary slightly from our data, if they occured in-between our weather recording intervals... More about our weather records

Advertising

Prievidza weather history for previous 24 hours

 ConditionsComfort  
Time TempWeatherWind HumidityBarometerVisibility
10:00 PM
Tue, Mar 31
41 °FLight rain. Overcast.N/A89%29.59 "Hg7 mi
9:00 PM37 °FPassing clouds.N/A95%29.56 "Hg6 mi
8:00 PM36 °FChilly.N/A94%29.54 "HgN/A
7:00 PM36 °FLight rain. Low clouds.2 mph93%29.50 "Hg7 mi
6:00 PM36 °FLow clouds.N/A92%29.50 "Hg6 mi
5:00 PM36 °FLight rain. Overcast.2 mph91%29.47 "Hg4 mi
4:00 PM35 °FLow clouds.3 mph91%29.50 "Hg12 mi
3:00 PM35 °FChilly.N/A92%29.54 "HgN/A
2:00 PM34 °FLight rain. Overcast.3 mph94%29.56 "Hg7 mi
1:00 PM34 °FLight snow. Low clouds.N/A92%29.62 "Hg1 mi
12:00 PM34 °FChilly.No wind94%29.65 "HgN/A
11:00 AM34 °FChilly.5 mph91%29.69 "HgN/A
10:00 AM36 °FChilly.8 mph88%29.73 "HgN/A
9:00 AM38 °FOvercast.3 mph83%29.74 "Hg12 mi
8:00 AM36 °FOvercast.2 mph88%29.77 "Hg12 mi
7:00 AM34 °FChilly.N/A89%29.80 "Hg17 mi
6:00 AM34 °FChilly.1 mph87%29.82 "Hg17 mi
5:00 AM37 °FChilly.3 mph82%29.84 "Hg31 mi
4:00 AM38 °FChilly.5 mph82%29.85 "Hg31 mi
3:00 AM38 °FChilly.5 mph83%29.85 "Hg25 mi
2:00 AM37 °FChilly.5 mph83%29.83 "Hg19 mi
1:00 AM39 °FChilly.6 mph82%29.82 "Hg31 mi
12:00 AM37 °FChilly.3 mph83%29.79 "Hg28 mi
11:00 PM
Mon, Mar 30
38 °FChilly.5 mph82%29.78 "Hg31 mi
Weather by CustomWeather, © 2015

See weather overviewHow to use our weather pages